Location: Zagreb
(45.8000°N, 16.0000°E)
Time: 04:15:27
(UTC+02:00)

Vanguard 2 Rocket - Pass Details

Date: 10 August 2022
Orbit: 553 x 3323 km, 32.9° (Epoch: 30 September)

Event Time Altitude Azimuth Distance (km) Brightness Sun altitude
Rises 22:52:04 0° 274° (W) 6,704 11.9 -22.2°
Reaches altitude 10° 23:01:39 10° 248° (WSW) 4,940 10.7 -23.1°
Maximum altitude 23:04:58 11° 234° (SW) 4,521 10.4 -23.4°
Drops below altitude 10° 23:07:58 10° 219° (SW) 4,312 10.1 -23.7°
Enters shadow 23:10:27 - 206° (SSW) 4,295 10.0 -23.9°
